Theta_e
309 309 309 308 306 306 306 306 306 306 306 307 307 307 311 313 316 317 315 313 314 312 312 318 317 319 318 319 319 320 324 325 326 327 328 326 326 324 323 322 321 322 322 323 322
310 310 311 310 308 310 310 310 310 308 306 306 306 310 313 318 320 317 313 313 313 315 318 319 318 317 319 319 320 321 322 323 324 326 326 325 323 322 322 322 322 322 322 321 321
308 310 312 312 312 311 311 311 311 308 308 307 307 312 316 319 323 318 314 314 314 316 317 317 317 318 319 319 320 321 321 323 323 322 321 320 320 320 320 321 321 321 322 322 321
308 308 312 312 311 310 310 312 311 310 307 307 308 313 316 319 324 317 313 312 313 316 316 317 318 319 321 321 320 320 320 320 321 320 319 320 319 319 320 320 320 320 320 320 320
310 308 312 312 312 310 310 311 311 310 307 307 313 314 317 320 318 314 313 314 317 316 316 317 318 318 320 320 319 319 320 319 318 318 318 318 318 318 318 318 317 318 318 318 318
311 311 312 312 311 310 311 311 311 311 310 314 317 316 319 318 315 316 316 316 315 316 317 316 317 316 318 318 318 318 318 318 318 318 318 318 318 318 318 318 317 317 318 318 318
311 311 312 312 310 310 312 313 312 312 311 314 315 317 319 316 316 317 316 315 315 315 317 315 315 316 317 319 318 317 318 319 319 319 319 318 319 319 318 318 319 318 318 319 319
310 311 311 311 309 312 313 313 311 310 313 315 316 319 316 314 315 315 316 317 315 315 315 314 314 316 317 317 317 318 319 320 322 319 318 318 319 320 319 319 319 319 319 319 319
310 311 311 310 311 312 312 313 313 314 314 315 319 322 316 314 315 314 315 316 315 314 314 314 314 317 317 319 320 320 321 322 321 321 319 319 319 321 320 319 319 319 319 319 319
311 310 311 311 312 312 311 313 314 314 313 313 315 317 315 315 314 314 314 314 315 315 315 316 317 318 320 320 320 320 320 319 319 320 320 320 321 321 321 321 320 320 320 320 320
313 311 310 311 311 314 312 314 316 317 315 315 315 315 314 314 313 315 314 314 315 316 318 318 318 319 319 318 317 316 317 317 319 320 321 321 321 322 322 322 322 322 321 321 320
312 312 312 311 311 312 316 318 316 315 316 314 314 314 313 313 314 315 315 316 316 318 318 319 320 319 317 317 317 317 318 319 320 321 321 322 322 323 324 323 322 322 322 322 321
312 312 312 311 313 315 315 316 315 315 319 314 312 314 313 314 315 315 315 315 317 317 318 318 319 318 317 318 319 320 321 321 321 321 321 322 324 324 324 323 322 321 321 320 320
308 312 313 313 315 315 315 315 315 315 323 316 315 315 314 313 316 313 314 315 317 318 318 319 318 317 319 320 320 321 321 321 321 322 323 323 324 324 324 324 323 322 322 320 320
304 312 312 311 316 315 313 316 316 317 330 315 316 313 314 314 313 316 314 316 320 319 319 321 319 319 319 320 320 320 320 320 320 322 323 323 324 324 324 324 323 322 320 320 320
304 310 312 317 317 314 313 316 318 326 325 316 315 316 316 315 314 315 315 318 318 319 320 320 318 319 320 319 319 319 320 322 323 324 326 325 325 325 324 324 323 322 320 319 319
304 309 312 314 316 313 313 317 323 321 316 318 316 316 316 316 316 315 317 320 320 320 322 320 320 319 318 319 318 320 322 324 324 324 326 325 324 324 323 323 321 320 319 319 320
306 311 314 316 315 312 315 321 324 318 317 316 316 316 317 316 315 316 317 318 320 318 319 320 322 320 318 318 318 319 320 324 325 324 324 323 323 323 323 321 320 319 319 319 319
311 316 318 315 312 313 316 322 322 319 316 316 317 318 318 316 315 316 317 317 317 317 319 320 321 319 318 317 318 321 321 321 323 323 324 323 323 324 323 322 321 320 320 319 319
312 317 316 314 311 316 322 316 319 316 315 317 318 317 318 318 317 317 317 317 316 315 316 319 320 319 318 317 319 320 320 323 324 327 326 322 323 322 323 322 321 321 319 319 318
317 319 314 315 315 320 323 320 317 315 315 317 318 317 318 318 317 317 317 316 315 315 315 317 318 320 319 320 321 321 321 320 320 321 325 325 322 323 322 322 321 320 317 316 315
318 320 312 315 322 317 320 318 313 316 314 315 316 318 318 318 317 318 317 316 314 314 314 315 318 320 319 319 319 320 321 320 326 326 325 328 326 321 321 319 320 318 316 315 314
315 315 313 314 320 319 318 317 315 316 316 316 316 316 317 318 322 317 318 314 313 314 314 316 317 321 320 322 322 322 320 320 321 324 324 325 323 320 320 320 318 316 314 313 312
315 317 313 314 314 317 318 318 317 315 314 314 316 317 318 318 318 318 318 317 315 313 311 312 316 318 321 320 319 320 319 319 321 321 322 324 322 321 320 319 317 315 313 312 311
311 315 311 316 315 314 315 315 315 317 316 315 318 317 316 318 319 317 318 317 316 316 314 315 318 318 317 317 317 317 318 318 320 320 321 322 321 320 319 316 315 313 312 311 310
311 309 309 313 312 314 311 315 316 315 316 317 317 316 318 320 319 320 318 319 319 317 316 316 319 318 319 317 317 318 318 318 318 318 321 320 321 318 316 314 314 311 310 310 310
307 309 311 313 313 313 315 314 314 313 313 313 315 315 315 315 314 314 313 313 314 317 318 318 320 318 317 317 317 319 320 320 318 318 318 320 318 315 315 314 312 310 309 309 308
Wind_Speed
18 16 14 13 11 10 9 6 4 1 0 1 1 5 11 14 13 9 5 4 4 4 4 1 2 5 6 10 10 10 9 14 20 19 10 12 5 8 6 11 15 11 12 12 10
16 15 15 14 12 10 9 9 7 3 0 2 4 8 16 14 11 6 9 9 8 9 6 3 3 4 13 10 7 12 12 17 9 11 7 8 4 11 13 16 15 14 15 12 10
16 13 12 13 13 10 8 9 8 6 2 3 6 13 17 9 4 6 7 8 7 6 2 1 3 7 10 8 9 9 13 9 7 7 8 11 14 15 18 16 18 17 13 14 14
16 12 10 11 12 12 10 9 6 2 3 6 9 18 13 2 2 4 9 9 9 10 3 3 4 9 10 9 5 11 13 9 13 7 12 14 18 19 20 21 20 20 19 19 20
19 12 9 9 12 13 10 8 1 3 5 7 13 19 8 7 10 7 7 5 10 4 2 2 3 5 10 4 7 12 14 7 12 15 17 19 19 20 24 22 22 21 21 22 22
19 16 13 12 13 10 7 5 2 1 7 13 17 12 4 10 5 4 2 4 3 2 3 4 3 6 7 10 8 9 10 14 16 18 18 17 20 19 17 13 14 15 19 19 19
15 15 16 17 15 9 8 8 3 4 12 17 12 4 5 7 3 0 2 1 3 3 3 3 4 7 6 10 6 10 15 16 19 14 10 14 17 20 21 20 19 23 21 21 21
16 14 15 19 16 12 12 12 12 14 19 18 13 7 8 4 2 2 2 3 3 3 2 4 6 8 7 8 12 13 14 13 10 8 13 7 17 16 11 12 20 21 21 24 24
14 11 15 17 16 12 14 15 16 18 17 12 3 5 10 4 4 3 2 4 5 5 5 6 6 8 9 13 12 13 12 8 11 2 8 12 17 21 24 22 24 26 28 28 29
12 12 11 14 14 12 14 14 13 11 9 2 1 5 5 1 1 3 3 4 6 7 11 9 10 10 13 11 10 17 16 16 15 13 11 18 24 21 23 24 26 27 29 29 29
14 10 12 8 11 5 2 2 4 5 4 11 7 6 3 5 1 6 7 6 10 11 12 4 8 10 13 10 11 13 16 19 18 16 17 19 22 23 24 25 26 28 28 30 30
14 7 12 9 8 8 5 4 3 2 3 4 5 5 4 6 3 6 10 6 6 11 8 10 13 8 7 11 13 15 18 20 18 15 15 21 26 24 22 12 14 15 18 20 22
13 6 9 8 7 9 5 1 1 0 7 3 2 5 6 5 2 9 11 11 10 10 8 10 13 9 8 11 13 15 17 19 19 19 21 25 23 20 11 4 8 10 10 12 13
15 7 7 4 4 4 3 4 3 2 5 5 2 2 5 2 3 4 10 9 5 6 9 8 6 7 12 14 14 17 15 13 17 18 16 17 18 24 20 8 8 8 5 11 17
15 7 6 5 3 5 7 1 5 2 5 4 4 1 1 6 8 4 7 4 8 9 6 6 8 11 13 10 10 15 14 17 21 21 20 21 12 19 6 15 3 3 9 9 4
17 3 3 5 3 7 5 2 4 6 1 5 1 3 4 0 1 7 4 3 4 8 7 12 10 4 8 10 12 12 16 20 23 18 16 23 17 14 5 13 8 9 10 11 14
16 2 1 3 6 7 2 4 6 5 3 4 3 5 4 6 2 6 6 2 7 7 1 13 3 1 5 11 13 13 12 12 9 11 13 4 7 9 13 12 6 11 10 12 11
12 1 3 3 8 4 4 8 6 5 3 3 3 4 3 7 2 8 5 3 7 7 12 5 4 3 2 13 13 16 12 9 17 14 18 25 15 12 3 3 2 12 10 8 13
7 4 3 9 6 1 9 8 7 5 4 7 9 7 4 3 3 5 3 3 4 5 6 9 5 13 12 5 5 7 10 8 13 18 16 18 24 9 12 6 6 10 13 16 18
3 1 5 10 4 2 8 5 2 3 5 3 5 2 7 7 6 7 3 5 2 1 5 6 11 11 3 9 19 12 13 9 5 6 11 11 16 14 7 19 13 19 24 22 23
6 5 7 7 2 9 4 4 1 4 4 3 5 6 5 8 6 8 3 1 2 4 7 11 9 9 16 17 12 7 9 6 10 9 8 14 10 14 23 14 7 18 20 22 24
5 3 10 7 10 2 3 3 1 2 3 4 5 6 7 6 9 7 5 2 1 7 10 11 7 14 21 22 15 12 16 11 4 10 12 14 20 23 10 7 21 28 29 28 28
8 4 9 9 4 3 1 2 3 4 3 3 5 3 5 8 4 8 8 1 4 7 5 9 5 10 8 8 4 5 7 8 12 14 15 16 17 17 25 22 29 26 27 29 31
8 3 5 7 6 7 5 2 4 2 8 6 9 8 10 10 10 9 12 7 4 7 6 6 10 12 11 17 21 23 23 23 16 5 16 22 31 26 26 22 23 25 28 32 35
8 4 4 5 5 8 5 6 8 5 4 7 7 7 9 1 13 16 15 7 11 17 14 8 14 17 20 24 23 24 27 26 24 25 21 27 30 26 17 19 23 26 32 33 35
9 8 10 11 7 8 3 4 6 7 4 9 9 11 11 11 12 17 20 19 17 12 10 10 11 14 20 23 25 28 26 25 26 26 21 22 24 21 29 30 24 32 34 35 33
12 6 8 7 4 7 4 8 8 10 9 9 11 10 14 18 21 23 25 28 25 17 18 16 4 3 13 18 22 19 16 9 13 18 16 15 21 23 20 17 31 34 37 36 28
Wind_Direction
26 27 36 34 41 50 54 53 55 71 171 183 137 120 123 108 81 66 51 149 110 100 89 357 238 228 225 235 249 259 255 256 262 260 241 104 260 258 263 272 263 258 272 282 298
29 24 26 38 42 46 45 38 32 27 344 168 147 131 129 113 91 84 95 90 87 96 23 252 214 216 223 237 228 242 244 257 17 357 329 337 273 289 291 276 266 253 261 261 270
29 30 33 33 28 21 16 8 2 18 45 124 133 141 137 125 155 74 96 91 85 71 10 320 234 242 239 245 215 248 255 329 311 305 308 294 283 270 268 268 269 275 278 278 277
20 25 31 32 24 10 343 332 334 27 86 122 141 151 139 140 130 126 97 85 80 47 3 280 254 243 256 226 218 267 243 291 273 276 273 273 282 277 271 270 277 276 275 273 274
27 33 37 25 11 3 354 340 42 103 101 125 139 148 157 110 99 125 103 56 29 19 20 319 295 278 256 275 278 252 272 243 264 270 271 280 273 276 270 269 273 270 269 269 268
32 38 35 17 3 9 52 49 15 48 107 125 138 158 175 94 109 132 89 19 31 12 22 10 341 308 292 264 264 335 288 277 270 270 277 287 282 277 265 263 259 256 263 265 266
27 27 23 19 14 55 63 40 103 129 124 123 123 116 78 92 125 206 350 360 11 22 350 352 333 285 337 258 269 285 283 274 258 255 268 302 279 259 267 266 268 262 259 267 266
24 25 24 22 32 74 73 72 90 115 124 119 104 78 89 87 116 356 280 264 313 321 328 310 310 289 267 313 273 250 253 273 144 200 238 233 281 285 301 284 278 269 265 267 267
16 24 25 26 44 75 84 95 102 117 127 120 95 264 116 77 65 11 276 258 272 261 268 289 273 274 259 247 263 194 281 245 306 197 259 242 274 289 284 274 268 264 265 264 266
7 13 17 23 40 100 89 106 99 121 131 158 258 184 117 65 360 7 319 258 270 273 257 239 241 251 239 243 296 322 311 303 294 296 279 273 281 284 283 278 274 269 267 266 263
1 4 8 19 29 54 182 6 189 161 106 41 51 73 83 356 272 351 341 285 252 261 257 240 288 276 354 334 306 296 286 285 288 286 295 282 287 288 285 277 269 266 266 265 264
4 355 1 5 27 49 40 282 352 62 150 77 62 69 9 336 258 16 349 311 305 284 304 256 238 20 331 297 285 283 283 281 284 294 298 294 287 289 275 280 274 272 268 271 275
360 355 358 4 37 31 41 35 111 17 257 120 42 17 7 346 56 360 353 327 288 285 281 292 306 360 289 289 285 285 289 294 303 311 286 270 274 295 179 307 306 288 286 283 280
350 353 355 37 46 5 9 324 224 266 250 129 168 79 348 56 192 332 347 325 274 316 328 275 20 297 290 291 290 294 308 318 292 293 291 323 298 286 271 263 247 282 332 334 314
348 345 12 43 17 360 327 350 188 239 244 107 103 330 328 19 330 75 342 320 297 321 290 70 317 319 299 313 331 292 323 299 288 280 284 278 265 276 174 222 174 350 318 302 311
346 330 44 10 28 347 339 146 155 233 125 128 284 327 284 25 55 337 333 318 265 285 260 267 272 280 327 304 276 283 283 287 270 257 257 264 245 259 314 24 341 319 331 339 320
348 273 224 28 324 319 243 181 234 271 161 105 342 332 321 350 203 349 331 36 7 322 326 313 226 88 304 312 307 275 293 308 292 248 243 171 257 273 287 294 360 324 322 331 337
358 355 339 1 324 303 167 231 260 52 23 99 277 289 299 1 15 331 304 313 122 330 307 338 241 160 79 303 302 291 293 281 294 296 306 314 293 301 165 238 239 288 278 280 296
34 55 25 320 323 229 238 245 21 19 8 335 280 271 176 180 314 298 340 298 7 357 335 311 266 328 300 319 309 355 265 341 294 284 272 272 263 298 271 272 338 329 347 335 324
56 180 355 338 315 218 252 0 14 35 325 295 299 9 325 345 310 333 302 98 315 342 326 319 299 288 294 271 260 233 297 298 282 284 293 295 316 297 348 335 8 357 339 324 310
42 249 348 355 278 245 315 46 46 79 332 298 317 290 312 314 301 311 281 240 173 321 305 289 261 283 296 285 287 249 238 269 285 256 274 289 273 357 329 326 8 330 321 314 312
340 274 347 348 254 295 20 1 345 254 233 283 286 286 289 318 298 290 268 258 95 305 305 299 291 289 288 283 271 269 276 265 234 274 267 284 274 278 281 289 309 333 328 328 319
342 331 349 344 317 41 80 239 278 275 280 291 284 250 320 288 308 284 287 350 279 278 330 350 283 308 307 154 168 271 298 282 298 295 252 267 269 298 296 310 323 327 330 319 314
328 309 28 55 49 332 353 256 279 170 280 271 285 292 281 277 255 255 265 262 233 266 296 293 246 249 268 292 310 299 296 294 292 260 283 268 283 291 300 314 319 326 323 321 312
4 58 3 337 67 335 301 305 292 283 233 263 272 242 294 248 311 280 278 283 271 277 228 238 263 265 261 263 268 268 270 271 263 258 255 276 280 291 312 334 320 314 319 313 309
4 352 335 284 311 299 134 322 309 312 280 293 270 292 279 257 260 280 287 280 291 290 235 240 274 289 288 285 281 274 276 283 284 284 279 276 282 307 328 320 310 320 312 307 306
3 337 304 297 302 277 14 330 316 317 294 273 295 304 302 297 306 298 287 281 276 273 272 272 256 286 276 292 303 294 279 284 305 304 306 299 300 327 314 324 316 310 304 301 301